| time (UTC) | temp F | wind direction | speed MPH | gust MPH | rain 1hr in | rain 24hr in | rain mn in | humidity % | barometer mb |
| 20260506081903 | 54 | 138 | 0.0 | 2.0 | 0.00 | 0.10 | 0.00 | 77 | 1036.5 |
| 20260506081403 | 54 | 138 | 0.0 | 2.0 | 0.00 | 0.10 | 0.00 | 77 | 1036.5 |
| 20260506080404 | 54 | 138 | 0.0 | 2.0 | 0.00 | 0.10 | 0.00 | 76 | 1036.5 |
| 20260506073403 | 55 | 138 | 1.0 | 3.0 | 0.00 | 0.11 | 0.00 | 75 | 1036.8 |
| 20260506072404 | 55 | 138 | 0.0 | 2.0 | 0.00 | 0.11 | 0.00 | 75 | 1036.7 |
| 20260506071904 | 55 | 138 | 2.0 | 5.0 | 0.00 | 0.11 | 0.00 | 74 | 1036.7 |
| 20260506071403 | 55 | 158 | 2.0 | 3.0 | 0.00 | 0.11 | 0.00 | 74 | 1036.7 |
| 20260506070904 | 55 | 146 | 1.0 | 3.0 | 0.00 | 0.11 | 0.00 | 74 | 1036.6 |
| 20260506070404 | 55 | 146 | 2.0 | 3.0 | 0.00 | 0.11 | 0.00 | 74 | 1036.6 |
| 20260506062404 | 56 | 163 | 2.0 | 5.0 | 0.00 | 0.12 | 0.11 | 74 | 1036.2 |
| 20260506061904 | 56 | 189 | 1.0 | 6.0 | 0.00 | 0.12 | 0.11 | 75 | 1036.3 |
| 20260506061403 | 56 | 178 | 1.0 | 3.0 | 0.00 | 0.12 | 0.11 | 75 | 1036.3 |
| 20260506060904 | 56 | 190 | 0.0 | 0.0 | 0.00 | 0.12 | 0.11 | 75 | 1036.2 |
| 20260506060404 | 56 | 190 | 0.0 | 0.0 | 0.00 | 0.12 | 0.11 | 74 | 1036.2 |
| 20260506051404 | 57 | 219 | 3.0 | 6.0 | 0.00 | 0.12 | 0.11 | 73 | 1035.6 |
| 20260506050903 | 57 | 212 | 2.0 | 5.0 | 0.00 | 0.12 | 0.11 | 73 | 1035.5 |
| 20260506050403 | 57 | 218 | 5.0 | 6.0 | 0.00 | 0.12 | 0.11 | 72 | 1035.5 |
| 20260506044903 | 57 | 220 | 4.0 | 6.0 | 0.00 | 0.12 | 0.11 | 72 | 1035.3 |
| 20260506044403 | 57 | 196 | 1.0 | 3.0 | 0.00 | 0.12 | 0.11 | 72 | 1035.2 |
| 20260506043903 | 57 | 173 | 0.0 | 3.0 | 0.00 | 0.12 | 0.11 | 72 | 1035.1 |
| 20260506043403 | 57 | 202 | 4.0 | 7.0 | 0.00 | 0.12 | 0.11 | 71 | 1035.1 |
| 20260506042903 | 57 | 211 | 0.0 | 3.0 | 0.00 | 0.12 | 0.11 | 71 | 1035.1 |
| 20260506042403 | 57 | 211 | 1.0 | 3.0 | 0.00 | 0.12 | 0.11 | 71 | 1035.1 |
| 20260506040904 | 57 | 211 | 2.0 | 7.0 | 0.00 | 0.12 | 0.11 | 71 | 1034.7 |
| 20260506040403 | 57 | 156 | 2.0 | 5.0 | 0.00 | 0.12 | 0.11 | 70 | 1034.6 |
| 20260506035903 | 57 | 199 | 2.0 | 5.0 | 0.00 | 0.12 | 0.11 | 70 | 1034.6 |
| 20260506035403 | 58 | 134 | 2.0 | 7.0 | 0.00 | 0.12 | 0.11 | 69 | 1034.5 |
| 20260506034903 | 58 | 191 | 3.0 | 8.0 | 0.00 | 0.12 | 0.11 | 69 | 1034.5 |
| 20260506034403 | 58 | 157 | 3.0 | 5.0 | 0.00 | 0.12 | 0.11 | 68 | 1034.4 |
| 20260506033903 | 58 | 207 | 1.0 | 3.0 | 0.00 | 0.12 | 0.11 | 68 | 1034.3 |
| 20260506032903 | 58 | 196 | 3.0 | 7.0 | 0.00 | 0.12 | 0.11 | 67 | 1034.3 |
| 20260506032403 | 58 | 198 | 3.0 | 9.0 | 0.00 | 0.12 | 0.11 | 66 | 1034.2 |
| 20260506031903 | 58 | 205 | 2.0 | 6.0 | 0.00 | 0.12 | 0.11 | 66 | 1034.1 |
| 20260506031403 | 58 | 226 | 2.0 | 8.0 | 0.00 | 0.12 | 0.11 | 66 | 1034.1 |
| 20260506030903 | 58 | 211 | 5.0 | 9.0 | 0.00 | 0.12 | 0.11 | 66 | 1034.0 |
| 20260506025903 | 58 | 185 | 5.0 | 10.0 | 0.00 | 0.12 | 0.11 | 65 | 1033.8 |
| 20260506024903 | 58 | 212 | 6.0 | 12.0 | 0.00 | 0.12 | 0.11 | 64 | 1033.5 |
| 20260506023903 | 59 | 216 | 3.0 | 10.0 | 0.00 | 0.12 | 0.11 | 64 | 1033.3 |
| 20260506023403 | 59 | 212 | 5.0 | 10.0 | 0.00 | 0.12 | 0.11 | 64 | 1033.3 |
| 20260506022903 | 59 | 214 | 5.0 | 13.0 | 0.00 | 0.12 | 0.11 | 64 | 1033.2 |
| 20260506022403 | 59 | 215 | 6.0 | 12.0 | 0.00 | 0.12 | 0.11 | 64 | 1033.1 |
| 20260506021904 | 59 | 189 | 5.0 | 12.0 | 0.00 | 0.12 | 0.11 | 64 | 1033.1 |
| 20260506021404 | 59 | 198 | 7.0 | 13.0 | 0.00 | 0.12 | 0.11 | 64 | 1033.0 |
| 20260506020903 | 59 | 215 | 8.0 | 13.0 | 0.00 | 0.12 | 0.11 | 63 | 1033.0 |
| 20260506020403 | 59 | 201 | 6.0 | 12.0 | 0.00 | 0.12 | 0.11 | 63 | 1032.9 |
| 20260506015903 | 59 | 190 | 7.0 | 14.0 | 0.00 | 0.12 | 0.11 | 62 | 1032.8 |
| 20260506014403 | 59 | 223 | 7.0 | 13.0 | 0.00 | 0.12 | 0.11 | 62 | 1032.6 |
| 20260506013403 | 60 | 199 | 6.0 | 14.0 | 0.00 | 0.12 | 0.11 | 61 | 1032.4 |
| 20260506012903 | 60 | 204 | 7.0 | 14.0 | 0.00 | 0.12 | 0.11 | 60 | 1032.3 |
| 20260506012404 | 60 | 209 | 9.0 | 13.0 | 0.00 | 0.12 | 0.11 | 60 | 1032.3 |
| 20260506011903 | 60 | 219 | 7.0 | 12.0 | 0.00 | 0.12 | 0.11 | 59 | 1032.2 |
| 20260506010903 | 60 | 214 | 8.0 | 13.0 | 0.00 | 0.12 | 0.11 | 59 | 1032.3 |
| 20260506010403 | 60 | 216 | 7.0 | 14.0 | 0.00 | 0.12 | 0.11 | 59 | 1032.2 |
| 20260506005904 | 60 | 212 | 10.0 | 14.0 | 0.00 | 0.12 | 0.11 | 59 | 1032.2 |
| 20260506005403 | 60 | 213 | 6.0 | 13.0 | 0.00 | 0.12 | 0.11 | 59 | 1032.1 |
| 20260506004903 | 60 | 214 | 9.0 | 14.0 | 0.00 | 0.12 | 0.11 | 58 | 1032.1 |
| 20260506004405 | 60 | 210 | 10.0 | 17.0 | 0.00 | 0.12 | 0.11 | 57 | 1032.1 |
| 20260506003903 | 61 | 216 | 12.0 | 17.0 | 0.00 | 0.12 | 0.11 | 56 | 1032.1 |
| 20260506002903 | 61 | 220 | 12.0 | 16.0 | 0.00 | 0.12 | 0.11 | 55 | 1032.1 |
| 20260506001904 | 62 | 218 | 9.0 | 15.0 | 0.00 | 0.12 | 0.11 | 53 | 1032.1 |
| 20260506000904 | 62 | 218 | 7.0 | 14.0 | 0.00 | 0.12 | 0.11 | 53 | 1032.0 |
| 20260506000404 | 62 | 215 | 9.0 | 12.0 | 0.00 | 0.12 | 0.11 | 53 | 1032.0 |
| 20260505235903 | 62 | 234 | 9.0 | 14.0 | 0.00 | 0.12 | 0.11 | 53 | 1031.9 |
| 20260505235403 | 62 | 211 | 7.0 | 10.0 | 0.00 | 0.12 | 0.11 | 53 | 1031.9 |
| 20260505234903 | 62 | 215 | 9.0 | 14.0 | 0.00 | 0.12 | 0.11 | 53 | 1031.9 |
| 20260505234404 | 63 | 186 | 6.0 | 12.0 | 0.00 | 0.12 | 0.11 | 53 | 1031.8 |
| 20260505233904 | 63 | 209 | 6.0 | 13.0 | 0.00 | 0.12 | 0.11 | 53 | 1031.8 |
| 20260505233405 | 63 | 205 | 5.0 | 12.0 | 0.00 | 0.12 | 0.11 | 52 | 1031.8 |
| 20260505232403 | 63 | 209 | 5.0 | 9.0 | 0.00 | 0.12 | 0.11 | 51 | 1031.8 |
| 20260505231904 | 63 | 212 | 5.0 | 10.0 | 0.00 | 0.12 | 0.11 | 51 | 1031.8 |
| 20260505231403 | 64 | 191 | 6.0 | 12.0 | 0.00 | 0.12 | 0.11 | 52 | 1031.8 |
| 20260505230903 | 64 | 199 | 8.0 | 16.0 | 0.00 | 0.12 | 0.11 | 51 | 1031.9 |
| 20260505230404 | 64 | 197 | 4.0 | 14.0 | 0.00 | 0.12 | 0.11 | 50 | 1031.9 |
| 20260505225904 | 65 | 203 | 4.0 | 10.0 | 0.00 | 0.12 | 0.11 | 51 | 1031.9 |
| 20260505223903 | 63 | 205 | 5.0 | 12.0 | 0.00 | 0.12 | 0.11 | 53 | 1032.1 |
| 20260505223403 | 63 | 211 | 5.0 | 10.0 | 0.00 | 0.12 | 0.11 | 53 | 1032.1 |
| 20260505222903 | 63 | 218 | 5.0 | 9.0 | 0.00 | 0.12 | 0.11 | 54 | 1032.2 |
| 20260505222403 | 63 | 204 | 6.0 | 10.0 | 0.00 | 0.12 | 0.11 | 53 | 1032.2 |
| 20260505221903 | 63 | 202 | 3.0 | 8.0 | 0.00 | 0.12 | 0.11 | 54 | 1032.3 |
| 20260505221404 | 63 | 206 | 4.0 | 8.0 | 0.00 | 0.12 | 0.11 | 54 | 1032.3 |
| 20260505220903 | 63 | 208 | 3.0 | 6.0 | 0.00 | 0.12 | 0.11 | 55 | 1032.3 |
| 20260505220404 | 63 | 225 | 4.0 | 7.0 | 0.00 | 0.12 | 0.11 | 55 | 1032.4 |
| 20260505215903 | 63 | 188 | 2.0 | 8.0 | 0.00 | 0.12 | 0.11 | 55 | 1032.5 |
| 20260505215404 | 63 | 208 | 6.0 | 9.0 | 0.00 | 0.12 | 0.11 | 55 | 1032.5 |
| 20260505214903 | 63 | 219 | 5.0 | 7.0 | 0.00 | 0.12 | 0.11 | 56 | 1032.6 |
| 20260505214404 | 63 | 165 | 2.0 | 6.0 | 0.00 | 0.12 | 0.11 | 56 | 1032.6 |
| 20260505213903 | 62 | 226 | 3.0 | 6.0 | 0.00 | 0.12 | 0.11 | 55 | 1032.6 |
| 20260505213403 | 62 | 214 | 5.0 | 7.0 | 0.00 | 0.12 | 0.11 | 56 | 1032.7 |
| 20260505212403 | 62 | 226 | 2.0 | 5.0 | 0.00 | 0.12 | 0.11 | 56 | 1032.8 |
| 20260505211904 | 61 | 231 | 0.0 | 1.0 | 0.00 | 0.12 | 0.11 | 57 | 1032.8 |
| 20260505211403 | 61 | 285 | 1.0 | 5.0 | 0.00 | 0.12 | 0.11 | 57 | 1032.8 |
| 20260505210903 | 61 | 10 | 3.0 | 8.0 | 0.00 | 0.12 | 0.11 | 57 | 1032.9 |
| 20260505210403 | 61 | 285 | 2.0 | 6.0 | 0.00 | 0.12 | 0.11 | 57 | 1032.9 |
| 20260505205903 | 61 | 98 | 2.0 | 3.0 | 0.00 | 0.12 | 0.11 | 57 | 1033.0 |
| 20260505205403 | 61 | 79 | 0.0 | 3.0 | 0.00 | 0.12 | 0.11 | 57 | 1033.0 |
| 20260505204904 | 61 | 50 | 3.0 | 7.0 | 0.00 | 0.12 | 0.11 | 59 | 1033.0 |
| 20260505203404 | 61 | 85 | 1.0 | 2.0 | 0.00 | 0.12 | 0.11 | 60 | 1033.0 |
| 20260505202903 | 61 | 105 | 2.0 | 5.0 | 0.00 | 0.12 | 0.11 | 60 | 1033.0 |
| 20260505202404 | 60 | 114 | 1.0 | 3.0 | 0.00 | 0.12 | 0.11 | 62 | 1033.1 |
| 20260505201903 | 60 | 96 | 0.0 | 0.0 | 0.00 | 0.12 | 0.11 | 62 | 1033.1 |
| 20260505201403 | 60 | 96 | 0.0 | 3.0 | 0.00 | 0.12 | 0.11 | 62 | 1033.2 |
| 20260505200904 | 60 | 91 | 1.0 | 3.0 | 0.00 | 0.12 | 0.11 | 63 | 1033.3 |
| 20260505195903 | 60 | 95 | 0.0 | 3.0 | 0.00 | 0.12 | 0.11 | 64 | 1033.2 |
| 20260505194904 | 59 | 49 | 2.0 | 3.0 | 0.00 | 0.12 | 0.11 | 66 | 1033.3 |
| 20260505194403 | 59 | 86 | 2.0 | 7.0 | 0.00 | 0.12 | 0.11 | 67 | 1033.3 |
| 20260505193903 | 59 | 59 | 3.0 | 5.0 | 0.00 | 0.12 | 0.11 | 67 | 1033.4 |
| 20260505193404 | 58 | 32 | 2.0 | 3.0 | 0.00 | 0.12 | 0.11 | 67 | 1033.4 |
| 20260505192903 | 58 | 72 | 2.0 | 7.0 | 0.00 | 0.12 | 0.11 | 68 | 1033.5 |
| 20260505192404 | 58 | 94 | 3.0 | 7.0 | 0.00 | 0.12 | 0.11 | 70 | 1033.6 |
| 20260505191903 | 58 | 73 | 4.0 | 7.0 | 0.00 | 0.12 | 0.11 | 70 | 1033.6 |
| 20260505190903 | 58 | 34 | 3.0 | 7.0 | 0.00 | 0.12 | 0.11 | 73 | 1033.6 |
| 20260505185404 | 57 | 64 | 3.0 | 8.0 | 0.00 | 0.12 | 0.11 | 77 | 1033.6 |
| 20260505184904 | 57 | 96 | 4.0 | 8.0 | 0.00 | 0.12 | 0.11 | 78 | 1033.6 |
| 20260505184403 | 56 | 97 | 5.0 | 7.0 | 0.00 | 0.12 | 0.11 | 79 | 1033.6 |
| 20260505183903 | 56 | 62 | 3.0 | 6.0 | 0.00 | 0.12 | 0.11 | 79 | 1033.7 |
| 20260505183404 | 56 | 106 | 6.0 | 9.0 | 0.00 | 0.12 | 0.11 | 80 | 1033.7 |
| 20260505182903 | 56 | 84 | 5.0 | 8.0 | 0.00 | 0.12 | 0.11 | 80 | 1033.7 |
| 20260505180903 | 57 | 105 | 3.0 | 7.0 | 0.00 | 0.12 | 0.11 | 79 | 1033.7 |
| 20260505180404 | 57 | 119 | 2.0 | 5.0 | 0.00 | 0.12 | 0.11 | 78 | 1033.6 |
| 20260505175903 | 57 | 92 | 2.0 | 3.0 | 0.00 | 0.12 | 0.11 | 78 | 1033.6 |
| 20260505174904 | 57 | 181 | 0.0 | 0.0 | 0.00 | 0.12 | 0.11 | 73 | 1033.5 |
| 20260505174403 | 57 | 339 | 0.0 | 2.0 | 0.00 | 0.12 | 0.11 | 74 | 1033.4 |
| 20260505173904 | 57 | 339 | 2.0 | 5.0 | 0.00 | 0.12 | 0.11 | 74 | 1033.3 |
| 20260505173404 | 57 | 289 | 1.0 | 3.0 | 0.00 | 0.12 | 0.11 | 76 | 1033.2 |
| 20260505172903 | 56 | 261 | 3.0 | 8.0 | 0.00 | 0.12 | 0.11 | 76 | 1033.2 |
| 20260505172402 | 56 | 246 | 3.0 | 8.0 | 0.00 | 0.12 | 0.11 | 77 | 1033.2 |
| 20260505171403 | 56 | 262 | 4.0 | 8.0 | 0.00 | 0.12 | 0.11 | 80 | 1033.1 |
| 20260505170403 | 55 | 298 | 2.0 | 8.0 | 0.00 | 0.12 | 0.11 | 83 | 1033.1 |
| 20260505165903 | 55 | 311 | 5.0 | 8.0 | 0.00 | 0.12 | 0.11 | 85 | 1033.1 |
| 20260505165403 | 55 | 304 | 2.0 | 6.0 | 0.00 | 0.12 | 0.11 | 86 | 1033.1 |
| 20260505164903 | 55 | 298 | 4.0 | 8.0 | 0.00 | 0.12 | 0.11 | 88 | 1033.0 |
| 20260505164403 | 54 | 283 | 2.0 | 6.0 | 0.00 | 0.12 | 0.11 | 89 | 1032.9 |
| 20260505163903 | 54 | 263 | 3.0 | 7.0 | 0.00 | 0.12 | 0.11 | 89 | 1032.9 |
| 20260505163403 | 54 | 314 | 2.0 | 6.0 | 0.00 | 0.12 | 0.11 | 90 | 1032.8 |
| 20260505162403 | 54 | 263 | 1.0 | 3.0 | 0.00 | 0.12 | 0.11 | 90 | 1032.8 |
| 20260505161903 | 54 | 127 | 1.0 | 3.0 | 0.00 | 0.12 | 0.11 | 91 | 1032.6 |
| 20260505160904 | 54 | 157 | 0.0 | 0.0 | 0.00 | 0.12 | 0.11 | 91 | 1032.5 |
| 20260505152903 | 52 | 0 | 1.0 | 3.0 | 0.08 | 0.12 | 0.11 | 91 | 1032.3 |
| 20260505152403 | 52 | 0 | 1.0 | 3.0 | 0.08 | 0.12 | 0.11 | 91 | 1032.3 |
| 20260505151903 | 52 | 323 | 1.0 | 3.0 | 0.08 | 0.12 | 0.11 | 91 | 1032.2 |
| 20260505150903 | 52 | 316 | 4.0 | 7.0 | 0.08 | 0.12 | 0.11 | 91 | 1032.1 |
| 20260505124903 | 52 | 113 | 1.0 | 3.0 | 0.00 | 0.03 | 0.02 | 90 | 1031.4 |
| 20260505124403 | 52 | 139 | 2.0 | 3.0 | 0.00 | 0.03 | 0.02 | 90 | 1031.3 |
| 20260505123903 | 52 | 107 | 3.0 | 6.0 | 0.00 | 0.03 | 0.02 | 90 | 1031.2 |
| 20260505123403 | 52 | 93 | 2.0 | 3.0 | 0.00 | 0.03 | 0.02 | 90 | 1031.2 |
| 20260505122404 | 52 | 93 | 2.0 | 3.0 | 0.00 | 0.03 | 0.02 | 89 | 1031.3 |
| 20260505121903 | 52 | 99 | 2.0 | 3.0 | 0.00 | 0.03 | 0.02 | 89 | 1031.3 |
| 20260505121403 | 52 | 85 | 3.0 | 6.0 | 0.00 | 0.03 | 0.02 | 89 | 1031.3 |
| 20260505120903 | 52 | 97 | 1.0 | 6.0 | 0.00 | 0.03 | 0.02 | 89 | 1031.3 |
| 20260505120403 | 52 | 79 | 3.0 | 7.0 | 0.00 | 0.03 | 0.02 | 89 | 1031.3 |
| 20260505115904 | 52 | 73 | 5.0 | 8.0 | 0.00 | 0.03 | 0.02 | 88 | 1031.3 |
| 20260505114404 | 52 | 109 | 2.0 | 3.0 | 0.00 | 0.03 | 0.02 | 89 | 1031.4 |
| 20260505113903 | 52 | 109 | 2.0 | 3.0 | 0.00 | 0.03 | 0.02 | 89 | 1031.5 |
| 20260505112903 | 52 | 109 | 2.0 | 3.0 | 0.00 | 0.03 | 0.02 | 89 | 1031.4 |
| 20260505112403 | 52 | 109 | 0.0 | 0.0 | 0.00 | 0.03 | 0.02 | 89 | 1031.4 |
| 20260505111403 | 52 | 109 | 0.0 | 1.0 | 0.00 | 0.03 | 0.02 | 89 | 1031.5 |
| 20260505110904 | 52 | 109 | 1.0 | 2.0 | 0.00 | 0.03 | 0.02 | 89 | 1031.5 |
| 20260505110403 | 52 | 109 | 0.0 | 2.0 | 0.00 | 0.03 | 0.02 | 89 | 1031.5 |
| 20260505101904 | 52 | 109 | 1.0 | 3.0 | 0.00 | 0.03 | 0.02 | 89 | 1031.5 |
| 20260505101404 | 52 | 105 | 2.0 | 6.0 | 0.00 | 0.03 | 0.02 | 89 | 1031.5 |
| 20260505100403 | 52 | 78 | 2.0 | 7.0 | 0.00 | 0.03 | 0.02 | 89 | 1031.6 |
| 20260505095403 | 52 | 100 | 3.0 | 7.0 | 0.00 | 0.03 | 0.02 | 89 | 1031.7 |
| 20260505094903 | 52 | 102 | 3.0 | 7.0 | 0.01 | 0.03 | 0.02 | 89 | 1031.7 |
| 20260505093403 | 52 | 87 | 0.0 | 0.0 | 0.01 | 0.03 | 0.02 | 89 | 1031.9 |
| 20260505092903 | 52 | 87 | 0.0 | 0.0 | 0.01 | 0.03 | 0.02 | 89 | 1031.9 |
| 20260505092403 | 52 | 87 | 2.0 | 3.0 | 0.01 | 0.03 | 0.02 | 89 | 1031.9 |
| 20260505091403 | 52 | 76 | 3.0 | 7.0 | 0.01 | 0.03 | 0.02 | 89 | 1032.0 |
| 20260505090904 | 52 | 80 | 2.0 | 7.0 | 0.01 | 0.03 | 0.02 | 89 | 1032.1 |
| 20260505090403 | 52 | 71 | 1.0 | 3.0 | 0.01 | 0.03 | 0.02 | 89 | 1032.2 |
| 20260505085903 | 52 | 71 | 2.0 | 3.0 | 0.02 | 0.03 | 0.02 | 88 | 1032.3 |
| 20260505085403 | 52 | 244 | 0.0 | 0.0 | 0.02 | 0.03 | 0.02 | 88 | 1032.5 |
| 20260505084903 | 52 | 244 | 0.0 | 0.0 | 0.01 | 0.02 | 0.01 | 88 | 1032.6 |
| 20260505084404 | 52 | 244 | 0.0 | 0.0 | 0.01 | 0.02 | 0.01 | 88 | 1032.6 |
| 20260505083903 | 52 | 244 | 0.0 | 0.0 | 0.01 | 0.02 | 0.01 | 88 | 1032.7 |
| 20260505083403 | 52 | 244 | 0.0 | 1.0 | 0.01 | 0.02 | 0.01 | 88 | 1032.6 |
| 20260505082404 | 52 | 244 | 0.0 | 2.0 | 0.01 | 0.02 | 0.01 | 88 | 1032.7 |